User: anonymous   Login
Location: Montreal
(45.5000°N, 73.5833°W)
Time: 02:14:54
(UTC-05:00)
Language:

Hubble Space Telescope - Orbit

View from above orbital plane
View from above orbital plane
View from above satellite
View from above satellite

Ground track
Ground track

The orbit data is extracted from the following two-line orbital elements,

1 20580U 90037B   18018.45457564  .00000449  00000-0  16544-4 0  9993
2 20580 028.4708 024.8686 0002543 334.7302 152.3726 15.08964492322748
Epoch (UTC): 18 January 2018 10:54:35
Eccentricity: 0.0002543
inclination: 28.4708°
perigee height: 537 km
apogee height: 541 km
right ascension of ascending node: 24.8686°
argument of perigee: 334.7302°
revolutions per day: 15.08964492
mean anomaly at epoch: 152.3726°
orbit number at epoch: 32274

The dashed part of the orbit path shows where the satellite is in the earth's shadow,  

DLR